TimeCDT,TemperatureF,Dew PointF,Humidity,Sea Level PressureIn,VisibilityMPH,Wind Direction,Wind SpeedMPH,Gust SpeedMPH,PrecipitationIn,Events,Conditions,WindDirDegrees,DateUTC
12:15 AM,71.8,68.5,89,29.81,10.0,SE,15.0,18.4,N/A,,Overcast,130,2014-03-16 05:15:00
12:35 AM,72.0,68.9,90,29.81,10.0,SE,17.3,23.0,N/A,,Overcast,130,2014-03-16 05:35:00
1:15 AM,72.1,69.1,90,29.79,10.0,SE,15.0,24.2,N/A,,Overcast,140,2014-03-16 06:15:00
1:35 AM,72.5,68.5,87,29.78,10.0,SSE,19.6,25.3,N/A,,Overcast,150,2014-03-16 06:35:00
1:55 AM,72.5,68.4,87,29.78,10.0,SSE,17.3,26.5,N/A,,Mostly Cloudy,150,2014-03-16 06:55:00
2:15 AM,72.5,68.5,87,29.77,10.0,SSE,19.6,25.3,N/A,,Overcast,150,2014-03-16 07:15:00
2:35 AM,72.5,68.9,88,29.76,10.0,SSE,21.9,27.6,N/A,,Mostly Cloudy,150,2014-03-16 07:35:00
2:55 AM,72.5,69.1,89,29.75,10.0,SSE,23.0,27.6,N/A,,Overcast,150,2014-03-16 07:55:00
3:15 AM,72.5,68.9,88,29.75,10.0,SSE,19.6,26.5,N/A,,Overcast,160,2014-03-16 08:15:00
3:35 AM,72.0,68.9,90,29.74,10.0,SSE,17.3,23.0,N/A,,Overcast,160,2014-03-16 08:35:00
3:55 AM,72.1,69.3,91,29.73,10.0,SSE,16.1,25.3,N/A,,Overcast,160,2014-03-16 08:55:00
4:15 AM,72.0,69.3,91,29.73,10.0,South,15.0,23.0,N/A,,Mostly Cloudy,170,2014-03-16 09:15:00
4:35 AM,72.0,69.4,92,29.73,10.0,South,17.3,23.0,N/A,,Scattered Clouds,170,2014-03-16 09:35:00
4:55 AM,71.6,69.4,93,29.73,10.0,South,17.3,26.5,N/A,,Mostly Cloudy,170,2014-03-16 09:55:00
5:15 AM,71.1,69.3,94,29.73,7.0,South,16.1,23.0,N/A,,Mostly Cloudy,170,2014-03-16 10:15:00
5:35 AM,70.3,68.9,95,29.73,7.0,South,15.0,23.0,N/A,,Overcast,180,2014-03-16 10:35:00
5:55 AM,69.8,68.4,95,29.72,7.0,South,15.0,20.7,N/A,,Overcast,180,2014-03-16 10:55:00
6:15 AM,69.3,68.0,96,29.72,7.0,South,15.0,23.0,N/A,,Overcast,190,2014-03-16 11:15:00
6:35 AM,69.4,68.0,95,29.72,7.0,South,17.3,26.5,N/A,Thunderstorm,Overcast,180,2014-03-16 11:35:00
7:15 AM,68.5,67.5,96,29.73,7.0,South,13.8,24.2,N/A,Thunderstorm,Overcast,190,2014-03-16 12:15:00
7:35 AM,68.5,67.5,96,29.72,7.0,South,15.0,21.9,N/A,Rain,Light Rain,190,2014-03-16 12:35:00
7:55 AM,68.2,67.3,97,29.72,4.0,SSW,16.1,25.3,N/A,,Overcast,200,2014-03-16 12:55:00
8:15 AM,67.6,67.1,98,29.73,2.5,SSW,17.3,26.5,N/A,Thunderstorm,Overcast,210,2014-03-16 13:15:00
8:35 AM,67.5,67.1,99,29.73,4.0,SSW,17.3,26.5,N/A,Rain-Thunderstorm,Light Thunderstorms and Rain,210,2014-03-16 13:35:00
8:55 AM,68.0,67.3,98,29.73,4.0,SW,17.3,24.2,N/A,,Overcast,220,2014-03-16 13:55:00
9:15 AM,69.3,68.0,96,29.73,5.0,SW,16.1,25.3,N/A,,Overcast,220,2014-03-16 14:15:00
9:35 AM,70.7,68.9,94,29.73,7.0,SW,10.4,18.4,N/A,,Overcast,230,2014-03-16 14:35:00
9:55 AM,73.0,70.3,91,29.70,7.0,WSW,11.5,19.6,N/A,,Mostly Cloudy,240,2014-03-16 14:55:00
10:15 AM,75.7,71.1,85,29.71,10.0,SW,11.5,24.2,N/A,Thunderstorm,Scattered Clouds,230,2014-03-16 15:15:00
10:35 AM,74.7,70.5,87,29.73,10.0,WSW,16.1,25.3,N/A,,Mostly Cloudy,240,2014-03-16 15:35:00
10:55 AM,75.7,70.7,84,29.74,10.0,WSW,13.8,20.7,N/A,,Mostly Cloudy,240,2014-03-16 15:55:00
11:15 AM,74.5,70.2,86,29.75,10.0,WSW,12.7,19.6,N/A,,Overcast,240,2014-03-16 16:15:00
11:35 AM,72.5,70.3,93,29.74,7.0,West,10.4,17.3,N/A,,Overcast,270,2014-03-16 16:35:00
11:55 AM,71.4,69.6,94,29.73,4.0,West,13.8,19.6,0.02,Rain,Rain,270,2014-03-16 16:55:00
12:15 PM,69.3,68.0,96,29.71,4.0,West,8.1,-,0.02,Rain,Heavy Rain,260,2014-03-16 17:15:00
12:35 PM,71.1,69.6,95,29.68,7.0,NW,6.9,-,0.02,,Overcast,310,2014-03-16 17:35:00
12:55 PM,73.8,70.7,90,29.68,10.0,NW,10.4,-,0.02,,Overcast,310,2014-03-16 17:55:00
1:15 PM,75.4,69.8,83,29.66,10.0,NW,8.1,-,N/A,,Mostly Cloudy,310,2014-03-16 18:15:00
1:55 PM,76.1,67.6,75,29.63,10.0,NNW,10.4,-,N/A,,Mostly Cloudy,330,2014-03-16 18:55:00
2:15 PM,74.8,67.5,78,29.65,10.0,NW,10.4,-,N/A,,Overcast,320,2014-03-16 19:15:00
2:35 PM,73.2,66.7,80,29.65,10.0,NW,4.6,-,N/A,Rain-Thunderstorm,Rain,310,2014-03-16 19:35:00
2:55 PM,72.9,67.6,84,29.66,10.0,WNW,3.5,-,0.02,Rain,Rain,300,2014-03-16 19:55:00
3:15 PM,72.1,68.0,87,29.67,10.0,Calm,Calm,-,0.01,Rain,Rain,0,2014-03-16 20:15:00
3:35 PM,71.8,69.1,91,29.67,7.0,SE,3.5,-,0.02,Rain,Light Rain,140,2014-03-16 20:35:00
3:55 PM,71.6,68.9,91,29.64,7.0,North,-9999.0,-,0.03,Rain,Light Rain,0,2014-03-16 20:55:00
4:15 PM,71.6,68.7,91,29.64,10.0,ESE,8.1,-,N/A,Rain,Light Rain,110,2014-03-16 21:15:00
4:35 PM,71.4,67.1,86,29.63,10.0,ESE,6.9,-,N/A,Rain,Light Rain,110,2014-03-16 21:35:00
4:55 PM,70.7,67.5,89,29.65,7.0,SE,5.8,-,N/A,Rain,Light Rain,140,2014-03-16 21:55:00
5:15 PM,70.0,68.2,94,29.67,5.0,ESE,10.4,-,0.01,Rain,Light Rain,120,2014-03-16 22:15:00
5:35 PM,69.8,68.0,94,29.67,7.0,SE,5.8,-,0.02,Rain,Light Rain,140,2014-03-16 22:35:00
5:55 PM,69.1,67.6,95,29.67,7.0,SE,4.6,-,0.03,Rain,Light Rain,140,2014-03-16 22:55:00
6:15 PM,68.5,67.1,95,29.68,5.0,South,3.5,-,N/A,Rain,Rain,190,2014-03-16 23:15:00
6:35 PM,67.3,66.2,96,29.70,5.0,West,6.9,-,0.01,Rain,Light Rain,280,2014-03-16 23:35:00
6:55 PM,66.0,65.1,97,29.69,4.0,SSE,4.6,-,0.05,Rain,Heavy Rain,150,2014-03-16 23:55:00
7:15 PM,67.6,65.8,94,29.68,7.0,SE,3.5,-,0.01,Rain-Thunderstorm,Light Thunderstorms and Rain,130,2014-03-17 00:15:00
7:35 PM,67.1,65.5,95,29.69,7.0,SSE,5.8,-,0.03,Rain,Rain,150,2014-03-17 00:35:00
7:55 PM,66.6,65.3,96,29.69,7.0,ESE,3.5,-,0.04,Rain,Light Rain,110,2014-03-17 00:55:00
8:15 PM,65.7,64.6,96,29.71,7.0,South,5.8,-,N/A,Rain,Light Rain,180,2014-03-17 01:15:00
8:35 PM,64.2,63.3,97,29.72,7.0,South,4.6,-,N/A,,Clear,170,2014-03-17 01:35:00
8:55 PM,65.3,63.7,94,29.68,10.0,East,3.5,-,N/A,Rain,Light Rain,90,2014-03-17 01:55:00
9:15 PM,64.4,63.3,96,29.71,10.0,SE,5.8,-,N/A,Thunderstorm,Scattered Clouds,140,2014-03-17 02:15:00
9:35 PM,64.9,63.5,95,29.74,10.0,South,5.8,-,N/A,,Scattered Clouds,170,2014-03-17 02:35:00
9:55 PM,64.6,63.1,95,29.74,10.0,SE,4.6,-,N/A,Rain,Light Rain,140,2014-03-17 02:55:00
10:15 PM,65.1,63.5,94,29.74,10.0,South,5.8,-,N/A,Rain,Rain,190,2014-03-17 03:15:00
10:35 PM,65.3,63.0,92,29.75,10.0,South,6.9,-,N/A,Rain,Light Rain,180,2014-03-17 03:35:00
10:55 PM,65.1,62.6,92,29.75,10.0,SSW,3.5,-,N/A,,Light Drizzle,200,2014-03-17 03:55:00
11:15 PM,65.3,62.6,91,29.75,10.0,SW,5.8,-,N/A,,Overcast,220,2014-03-17 04:15:00
11:35 PM,64.8,62.4,92,29.76,10.0,NW,8.1,-,N/A,,Overcast,310,2014-03-17 04:35:00
11:55 PM,64.8,61.0,88,29.75,10.0,NNW,5.8,-,N/A,,Overcast,340,2014-03-17 04:55:00